AFX14 EGKK-EDDF

Flight info

Callsign AFX14
Flight time N/A
Altitude 31000
Route DVR UL9 KONAN UL607 KOK DCT REMBA UL607 SPI T180 NIVNU/N0399F230 T847 IMCOM IMCOM1B
Aircraft MD88/M-SDFGIRWY/S

Departure

Time 2026-05-04 21:02
Airport London Gatwick Airport (EGKK)

Arrival

Time N/A
Airport Frankfurt Main Airport (EDDF)
Time Latitude Longitude Altitude Speed Heading
2026-05-04 20:26 51.15843 -0.17520 215 ft 0 kts 347°
2026-05-04 20:45 51.15838 -0.17518 205 ft 4 kts 346°
2026-05-04 20:45 51.15812 -0.17505 205 ft 4 kts 336°
2026-05-04 20:45 51.15790 -0.17484 205 ft 4 kts 318°
2026-05-04 20:46 51.15775 -0.17454 205 ft 4 kts 287°
2026-05-04 20:46 51.15774 -0.17426 205 ft 0 kts 257°
2026-05-04 20:47 51.15773 -0.17430 205 ft 2 kts 257°
2026-05-04 20:47 51.15773 -0.17434 205 ft 0 kts 257°
2026-05-04 20:47 51.15772 -0.17437 205 ft 0 kts 257°
2026-05-04 20:48 51.15772 -0.17441 205 ft 0 kts 257°
2026-05-04 20:50 51.15771 -0.17448 210 ft 2 kts 257°
2026-05-04 20:50 51.15764 -0.17478 205 ft 1 kts 241°
2026-05-04 20:50 51.15733 -0.17496 214 ft 7 kts 186°
2026-05-04 20:51 51.15699 -0.17494 210 ft 10 kts 171°
2026-05-04 20:51 51.15554 -0.17443 211 ft 25 kts 162°
2026-05-04 20:51 51.15451 -0.17403 211 ft 0 kts 171°
2026-05-04 20:51 51.15425 -0.17396 212 ft 13 kts 171°
2026-05-04 20:52 51.15328 -0.17371 206 ft 6 kts 178°
2026-05-04 20:52 51.15295 -0.17423 214 ft 17 kts 255°
2026-05-04 20:52 51.15271 -0.17661 206 ft 23 kts 258°
2026-05-04 20:52 51.15236 -0.17929 206 ft 26 kts 258°
2026-05-04 20:53 51.15212 -0.18106 206 ft 0 kts 257°
2026-05-04 20:53 51.15210 -0.18116 214 ft 3 kts 256°
2026-05-04 20:54 51.15201 -0.18173 216 ft 8 kts 256°
2026-05-04 20:54 51.15186 -0.18278 217 ft 12 kts 263°
2026-05-04 20:54 51.15177 -0.18424 209 ft 15 kts 258°
2026-05-04 20:54 51.15150 -0.18605 205 ft 19 kts 256°
2026-05-04 20:55 51.15119 -0.18823 211 ft 22 kts 258°
2026-05-04 20:55 51.15085 -0.19071 206 ft 24 kts 257°
2026-05-04 20:55 51.15047 -0.19346 208 ft 26 kts 258°
2026-05-04 20:55 51.15007 -0.19644 208 ft 29 kts 258°
2026-05-04 20:56 51.14960 -0.19962 206 ft 30 kts 256°
2026-05-04 20:56 51.14912 -0.20300 216 ft 32 kts 257°
2026-05-04 20:56 51.14865 -0.20654 209 ft 33 kts 258°
2026-05-04 20:56 51.14816 -0.21019 206 ft 32 kts 256°
2026-05-04 20:57 51.14775 -0.21252 206 ft 22 kts 254°
2026-05-04 20:57 51.14745 -0.21385 206 ft 4 kts 210°
2026-05-04 20:57 51.14694 -0.21382 216 ft 7 kts 155°
2026-05-04 20:57 51.14652 -0.21349 216 ft 0 kts 154°
2026-05-04 20:59 51.14649 -0.21346 206 ft 0 kts 154°
2026-05-04 20:59 51.14643 -0.21341 216 ft 3 kts 155°
2026-05-04 20:59 51.14636 -0.21337 206 ft 1 kts 155°
2026-05-04 20:59 51.14635 -0.21336 206 ft 0 kts 155°
2026-05-04 21:00 51.14632 -0.21334 206 ft 2 kts 155°
2026-05-04 21:01 51.14603 -0.21314 210 ft 12 kts 158°
2026-05-04 21:01 51.14528 -0.21225 217 ft 11 kts 116°
2026-05-04 21:01 51.14556 -0.20905 217 ft 67 kts 75°
2026-05-04 21:01 51.14728 -0.19694 217 ft 153 kts 75°
2026-05-04 21:02 51.14994 -0.17819 512 ft 188 kts 77°
2026-05-04 21:02 51.15226 -0.15717 1543 ft 200 kts 81°
2026-05-04 21:02 51.15390 -0.13365 2183 ft 224 kts 83°
2026-05-04 21:02 51.15554 -0.10646 2359 ft 235 kts 83°
2026-05-04 21:03 51.15720 -0.08584 5026 ft 171 kts 77°
2026-05-04 21:03 51.16069 -0.06571 5557 ft 220 kts 70°
2026-05-04 21:03 51.16617 -0.04115 6101 ft 251 kts 71°
2026-05-04 21:03 51.16924 -0.01073 5910 ft 305 kts 87°
2026-05-04 21:04 51.16937 0.02370 6273 ft 295 kts 90°
2026-05-04 21:04 51.16902 0.05313 6900 ft 245 kts 90°
2026-05-04 21:04 51.16860 0.07804 7506 ft 205 kts 91°
2026-05-04 21:04 51.16813 0.10054 8140 ft 211 kts 91°
2026-05-04 21:05 51.16755 0.12499 8810 ft 230 kts 91°
2026-05-04 21:05 51.16692 0.15091 9483 ft 245 kts 91°
2026-05-04 21:05 51.16651 0.17874 10155 ft 257 kts 90°
2026-05-04 21:05 51.16633 0.20776 10822 ft 266 kts 90°
2026-05-04 21:06 51.16622 0.23774 11484 ft 274 kts 90°
2026-05-04 21:06 51.16617 0.26844 12142 ft 281 kts 90°
2026-05-04 21:06 51.16614 0.29981 12798 ft 285 kts 90°
2026-05-04 21:06 51.16614 0.33159 13439 ft 288 kts 90°
2026-05-04 21:07 51.16615 0.36364 14103 ft 290 kts 90°
2026-05-04 21:07 51.16614 0.39587 14752 ft 291 kts 90°
2026-05-04 21:07 51.16612 0.42832 15404 ft 294 kts 91°
2026-05-04 21:07 51.16609 0.46112 16056 ft 298 kts 91°
2026-05-04 21:08 51.16602 0.49453 16710 ft 304 kts 91°
2026-05-04 21:08 51.16559 0.52839 17365 ft 308 kts 93°
2026-05-04 21:08 51.16490 0.56276 18018 ft 312 kts 93°
2026-05-04 21:08 51.16412 0.59737 18669 ft 314 kts 94°
2026-05-04 21:09 51.16331 0.63213 19317 ft 315 kts 94°
2026-05-04 21:09 51.16253 0.66692 19964 ft 314 kts 94°
2026-05-04 21:09 51.16175 0.70166 20611 ft 314 kts 94°
2026-05-04 21:09 51.16100 0.73635 21258 ft 313 kts 94°
2026-05-04 21:10 51.16027 0.77087 21904 ft 311 kts 93°
2026-05-04 21:10 51.15956 0.80516 22551 ft 308 kts 93°
2026-05-04 21:10 51.15888 0.83906 23197 ft 305 kts 93°
2026-05-04 21:10 51.15821 0.87210 23833 ft 300 kts 93°
2026-05-04 21:11 51.15755 0.90512 24478 ft 295 kts 93°
2026-05-04 21:11 51.15693 0.93748 25120 ft 289 kts 93°
2026-05-04 21:11 51.15634 0.96909 25762 ft 282 kts 93°
2026-05-04 21:11 51.15578 0.99987 26393 ft 273 kts 94°
2026-05-04 21:12 51.15524 1.02964 27042 ft 264 kts 94°
2026-05-04 21:12 51.15472 1.05821 27676 ft 253 kts 94°
2026-05-04 21:12 51.15422 1.08547 28298 ft 239 kts 94°
2026-05-04 21:12 51.15377 1.11115 28912 ft 223 kts 95°
2026-05-04 21:13 51.15337 1.13492 29494 ft 206 kts 95°
2026-05-04 21:13 51.15296 1.15692 29893 ft 196 kts 96°
2026-05-04 21:13 51.15281 1.17940 29819 ft 212 kts 93°
2026-05-04 21:13 51.15360 1.20344 29900 ft 219 kts 87°
2026-05-04 21:14 51.15597 1.22699 30277 ft 210 kts 79°
2026-05-04 21:14 51.16046 1.24881 30535 ft 209 kts 68°
2026-05-04 21:14 51.16785 1.26970 30454 ft 225 kts 54°
2026-05-04 21:14 51.17857 1.28834 30555 ft 230 kts 38°
2026-05-04 21:15 51.19192 1.30170 30829 ft 223 kts 19°
2026-05-04 21:15 51.20670 1.30772 30979 ft 223 kts
2026-05-04 21:15 51.22410 1.31018 29971 ft 281 kts
2026-05-04 21:15 51.24145 1.31764 30987 ft 236 kts 26°
2026-05-04 21:16 51.25529 1.33082 31171 ft 246 kts 35°
2026-05-04 21:16 51.27085 1.34975 29782 ft 317 kts 44°